RYR1KM EIDW-EKBI

Flight info

Callsign RYR1KM
Flight time N/A
Altitude 37000
Route ROTEV3J ROTEV P600 GOTNA DCT TRN DCT ZOFAT DCT BEVAM DCT PETIL L983 AMRAM P60 EPILO DCT GELBA DCT
Aircraft A320/M-SDE3FGHIRWY/LB1

Departure

Time N/A
Airport Dublin Airport (EIDW)

Arrival

Time 2026-04-30 18:12
Airport Billund Airport (EKBI)
Time Latitude Longitude Altitude Speed Heading
2026-04-30 17:39 55.93167 4.71591 37254 ft 461 kts 87°
2026-04-30 17:41 55.93216 5.17433 30647 ft 469 kts 90°
2026-04-30 17:42 55.93184 5.29129 28273 ft 473 kts 91°
2026-04-30 17:42 55.93113 5.46776 25723 ft 478 kts 91°
2026-04-30 17:43 55.93037 5.58643 25436 ft 479 kts 91°
2026-04-30 17:44 55.92904 5.76496 25464 ft 480 kts 91°
2026-04-30 17:44 55.92746 5.94368 25456 ft 480 kts 91°
2026-04-30 17:46 55.92436 6.24205 25031 ft 483 kts 91°
2026-04-30 17:47 55.92130 6.47925 24100 ft 476 kts 91°
2026-04-30 17:48 55.91781 6.71369 23021 ft 469 kts 92°
2026-04-30 17:48 55.91491 6.88703 22232 ft 463 kts 91°
2026-04-30 17:49 55.91083 7.11480 21199 ft 456 kts 92°
2026-04-30 17:50 55.90638 7.33917 20215 ft 449 kts 92°
2026-04-30 17:51 55.90283 7.50446 19496 ft 444 kts 92°
2026-04-30 17:52 55.89911 7.66859 18795 ft 439 kts 92°
2026-04-30 17:53 55.89253 7.93778 17478 ft 430 kts 92°
2026-04-30 17:54 55.88688 8.14902 16454 ft 423 kts 93°
2026-04-30 17:55 55.88108 8.35645 15467 ft 416 kts 93°
2026-04-30 17:56 55.87503 8.55697 12403 ft 390 kts 93°
2026-04-30 17:57 55.87049 8.70102 11099 ft 389 kts 94°
2026-04-30 17:58 55.86600 8.83959 10379 ft 354 kts 94°
2026-04-30 17:59 55.86054 9.00180 9638 ft 302 kts 94°
2026-04-30 18:00 55.85564 9.14134 8148 ft 271 kts 94°
2026-04-30 18:00 55.85208 9.24008 6415 ft 263 kts 94°
2026-04-30 18:01 55.84867 9.30447 5231 ft 259 kts 108°
2026-04-30 18:02 55.80609 9.34855 3403 ft 259 kts 179°
2026-04-30 18:02 55.76812 9.40152 2997 ft 257 kts 104°
2026-04-30 18:03 55.78407 9.48140 2994 ft 217 kts 49°
2026-04-30 18:04 55.80323 9.54591 2994 ft 176 kts 64°
2026-04-30 18:05 55.78421 9.59371 3010 ft 172 kts 191°
2026-04-30 18:06 55.75600 9.52664 2999 ft 177 kts 239°
2026-04-30 18:07 55.74895 9.44631 2992 ft 145 kts 268°
2026-04-30 18:08 55.74747 9.39375 2639 ft 141 kts 268°
2026-04-30 18:09 55.74551 9.32563 1924 ft 138 kts 268°
2026-04-30 18:10 55.74355 9.25894 1182 ft 134 kts 269°
2026-04-30 18:11 55.74160 9.19396 460 ft 132 kts 268°
2026-04-30 18:11 55.74033 9.15093 231 ft 67 kts 266°
2026-04-30 18:12 55.74208 9.14486 225 ft 16 kts 356°
2026-04-30 18:13 55.74339 9.14473 225 ft 11 kts 355°
2026-04-30 18:13 55.74449 9.14716 227 ft 13 kts 83°
2026-04-30 18:14 55.74473 9.15012 230 ft 6 kts 26°
2026-04-30 18:15 55.74541 9.15016 231 ft 0 kts 357°